1505217600.74,27887,16.94,73174.5,6.25,6.21,6.21,0,*7E
1505217601.93,27888,16.94,73174.3,6.25,6.21,6.21,0,*71
1505217603.13,27889,16.94,73174.5,6.25,6.25,6.21,0,*74
1505217604.34,27890,16.94,73174.8,6.27,6.25,6.29,0,*76
1505217605.55,27891,16.94,73172.8,6.27,6.25,6.29,0,*77
1505217606.74,27892,16.94,73172.8,6.29,6.25,6.29,0,*7A
1505217607.95,27893,16.94,73176.8,6.29,6.39,6.33,0,*7D
1505217609.21,27894,16.94,73172.3,6.27,6.43,6.51,0,*7D
1505217610.48,27895,16.94,73174.0,6.27,6.51,6.53,0,*7D
1505217611.74,27896,16.94,73170.8,6.27,6.39,6.43,0,*71
1505217612.95,27897,16.94,73172.8,6.29,6.25,6.39,0,*7E
1505217614.15,27898,16.94,73172.8,6.29,6.03,6.13,0,*7D
1505217615.37,27899,16.94,73174.0,6.27,6.07,6.03,0,*77
1505217616.63,27900,16.94,73172.5,6.27,6.17,6.17,0,*72
1505217617.85,27901,16.94,73174.8,6.27,6.33,6.33,0,*73
1505217619.06,27902,16.94,73172.3,6.29,6.33,6.43,0,*79
1505217620.28,27903,16.94,73168.8,6.29,6.53,6.53,0,*7F
1505217621.54,27904,16.94,73174.8,6.27,6.53,6.65,0,*73
1505217622.76,27905,16.94,73170.5,6.29,6.61,6.65,0,*7D
1505217624.01,27906,16.94,73172.0,6.31,6.53,6.57,0,*77
1505217625.26,27907,16.94,73174.5,6.31,6.53,6.53,0,*72
1505217626.52,27908,16.94,73172.5,6.31,6.43,6.43,0,*7D
1505217627.73,27909,16.94,73170.3,6.31,6.29,6.33,0,*77
1505217628.92,27910,16.94,73172.8,6.29,6.29,6.33,0,*76
1505217630.13,27911,16.94,73172.8,6.29,6.39,6.33,0,*76
1505217631.36,27912,16.94,73174.3,6.29,6.39,6.43,0,*72
1505217632.63,27913,16.94,73174.5,6.31,6.43,6.43,0,*77
1505217633.89,27914,16.94,73174.0,6.31,6.47,6.47,0,*70
1505217635.14,27915,16.94,73172.3,6.35,6.57,6.61,0,*70
1505217636.38,27916,16.94,73172.5,6.31,6.65,6.75,0,*73
1505217637.6,27917,16.94,73172.5,6.31,6.69,6.75,0,*7E
1505217638.84,27918,16.94,73172.3,6.31,6.65,6.75,0,*7D
1505217640.07,27919,16.94,73172.8,6.35,6.73,6.83,0,*76
1505217641.27,27920,16.94,73172.0,6.35,6.79,6.79,0,*73
1505217642.5,27921,16.94,73174.5,6.35,6.73,6.79,0,*78
1505217643.73,27922,16.94,73172.0,6.35,6.73,6.83,0,*7E
1505217644.93,27923,16.94,73170.5,6.37,6.69,6.79,0,*73
1505217646.09,27924,16.94,73172.5,6.37,6.75,6.83,0,*7C
1505217647.27,27925,16.94,73174.3,6.41,6.79,6.79,0,*75
1505217648.52,27926,16.94,73172.8,6.39,6.73,6.73,0,*79
1505217649.73,27927,16.94,73174.5,6.39,6.75,6.75,0,*78
1505217650.95,27928,16.94,73176.3,6.39,6.75,6.87,0,*7A
1505217652.13,27929,16.94,73170.3,6.41,6.75,6.79,0,*75
1505217653.36,27930,16.94,73172.8,6.41,6.87,6.91,0,*76
1505217654.59,27931,16.94,73172.5,6.43,6.91,6.97,0,*74
1505217655.85,27932,16.94,73170.5,6.43,6.87,6.87,0,*71
1505217657.1,27933,16.94,73172.0,6.43,6.87,6.87,0,*70
1505217658.31,27934,16.94,73168.8,6.41,6.79,6.91,0,*73
1505217659.53,27935,16.94,73172.5,6.43,6.69,6.75,0,*7B
1505217660.78,27936,16.94,73170.0,6.43,6.65,6.69,0,*79
1505217662.01,27937,16.94,73168.0,6.41,6.57,6.65,0,*77
1505217663.25,27938,16.94,73170.3,6.41,6.47,6.47,0,*79
1505217664.51,27939,16.94,73170.0,6.43,6.43,6.47,0,*7E
1505217665.77,27940,16.94,73170.0,6.43,6.43,6.47,0,*70
1505217667.0,27941,16.94,73170.3,6.41,6.43,6.53,0,*76
1505217668.23,27942,16.94,73168.5,6.41,6.39,6.39,0,*74
1505217669.46,27943,16.94,73170.5,6.41,6.39,6.39,0,*75
1505217670.69,27944,16.94,73168.5,6.41,6.39,6.43,0,*7F
1505217671.92,27945,16.94,73168.0,6.41,6.39,6.39,0,*73
1505217673.11,27946,16.94,73170.3,6.41,6.29,6.33,0,*7B
1505217674.29,27947,16.94,73172.8,6.41,6.07,6.11,0,*76
1505217675.54,27948,16.94,73172.8,6.39,6.13,6.17,0,*75
1505217676.8,27949,16.94,73168.5,6.39,6.17,6.17,0,*70
1505217678.03,27950,16.94,73170.8,6.39,6.17,6.25,0,*79
1505217679.21,27951,16.94,73170.8,6.41,5.99,6.07,0,*72
1505217680.42,27952,16.94,73170.8,6.39,5.95,5.95,0,*7A
1505217681.67,27953,16.94,73170.0,6.39,5.81,5.81,0,*7B
1505217682.87,27954,16.94,73168.8,6.37,5.71,5.81,0,*7D
1505217684.13,27955,16.94,73168.0,6.35,5.93,5.93,0,*71
1505217685.34,27956,16.94,73166.5,6.35,5.99,5.99,0,*72
1505217686.55,27957,16.94,73168.5,6.37,5.93,5.99,0,*7B
1505217687.76,27958,16.94,73170.5,6.37,5.93,5.99,0,*74
1505217689.01,27959,16.94,73170.8,6.35,5.77,5.77,0,*7D
1505217690.23,27960,16.94,73168.8,6.35,5.45,5.55,0,*76
1505217691.43,27961,16.94,73174.0,6.31,5.41,5.41,0,*72
1505217692.63,27962,16.94,73170.8,6.31,5.29,5.29,0,*71
1505217693.83,27963,16.94,73174.0,6.31,5.37,5.37,0,*70
1505217695.03,27964,16.94,73168.0,6.27,5.45,5.49,0,*7C
1505217696.24,27965,16.94,73168.0,6.27,5.49,5.49,0,*71
1505217697.49,27966,16.94,73172.3,6.27,5.55,5.55,0,*72
1505217698.75,27967,16.94,73170.8,6.27,5.73,5.85,0,*7A
1505217699.95,27968,16.94,73172.3,6.27,6.07,6.07,0,*7C
1505217701.18,27969,16.94,73172.3,6.27,6.07,6.13,0,*78
1505217702.38,27970,16.94,73170.8,6.25,6.03,6.03,0,*77
1505217703.62,27971,16.94,73172.3,6.25,6.13,6.13,0,*76
1505217704.81,27972,16.94,73172.5,6.25,6.21,6.25,0,*71
1505217706.02,27973,16.94,73174.0,6.27,6.25,6.29,0,*7A
1505217707.25,27974,16.94,73172.0,6.27,6.25,6.33,0,*76
1505217708.46,27975,16.94,73176.3,6.27,6.03,6.07,0,*74
1505217709.64,27976,16.94,73174.0,6.29,5.95,6.07,0,*75
1505217710.85,27977,16.94,73178.0,6.27,5.95,5.95,0,*72
1505217712.06,27978,16.94,73174.8,6.27,6.07,6.07,0,*7D
1505217713.31,27979,16.94,73172.8,6.27,6.17,6.17,0,*7C
1505217714.52,27980,16.94,73178.8,6.29,6.17,6.29,0,*79
1505217715.75,27981,16.94,73176.0,6.29,6.13,6.17,0,*71
1505217716.97,27982,16.94,73178.0,6.27,6.03,6.03,0,*78
1505217718.23,27983,16.94,73178.0,6.27,6.17,6.17,0,*79
1505217719.44,27984,16.94,73178.5,6.29,6.17,6.25,0,*71
1505217720.66,27985,16.94,73178.5,6.27,6.33,6.33,0,*7F
1505217721.86,27986,16.94,73172.8,6.29,6.33,6.39,0,*78
1505217723.09,27987,16.94,73172.8,6.27,6.25,6.33,0,*7A
1505217724.3,27988,16.94,73176.3,6.27,6.25,6.29,0,*7E
1505217725.52,27989,16.94,73178.0,6.27,6.29,6.33,0,*78
1505217726.7,27990,16.94,73178.3,6.29,6.25,6.29,0,*79
1505217727.92,27991,16.94,73176.5,6.27,6.33,6.33,0,*7A
1505217729.16,27992,16.94,73176.8,6.29,6.43,6.43,0,*77
1505217730.42,27993,16.94,73178.0,6.27,6.43,6.53,0,*79
1505217731.64,27994,16.94,73174.8,6.29,6.61,6.61,0,*71
1505217732.87,27995,16.94,73174.5,6.29,6.61,6.61,0,*70
1505217734.1,27996,16.94,73174.8,6.29,6.51,6.51,0,*73
1505217735.37,27997,16.94,73176.0,6.27,6.39,6.43,0,*71
1505217736.62,27998,16.94,73178.0,6.31,6.47,6.53,0,*71
1505217737.87,27999,16.94,73176.8,6.31,6.57,6.57,0,*75
1505217739.12,28000,16.94,73174.0,6.35,6.69,6.73,0,*7C
1505217740.36,28001,16.94,73176.8,6.31,6.69,6.69,0,*72
1505217741.59,28002,16.94,73176.3,6.31,6.69,6.79,0,*70
1505217742.82,28003,16.94,73178.5,6.35,6.83,6.91,0,*77
1505217744.02,28004,16.94,73176.0,6.35,6.83,6.93,0,*72
1505217745.25,28005,16.94,73176.5,6.35,6.91,6.93,0,*70
1505217746.48,28006,16.94,73178.5,6.35,6.91,6.93,0,*73
1505217747.69,28007,16.94,73176.3,6.37,6.83,6.91,0,*71
1505217748.89,28008,16.94,73178.0,6.37,6.91,6.93,0,*7F
1505217750.06,28009,16.94,73174.5,6.37,6.93,6.93,0,*7C
1505217751.27,28010,16.94,73176.8,6.39,6.97,6.97,0,*7A
1505217752.48,28011,16.94,73172.3,6.39,6.93,6.97,0,*7F
1505217753.69,28012,16.94,73176.3,6.39,6.97,6.97,0,*78
1505217754.92,28013,16.94,73178.5,6.39,6.87,6.93,0,*7C
1505217756.18,28014,16.94,73174.0,6.39,6.87,6.87,0,*7E
1505217757.44,28015,16.94,73176.5,6.43,6.87,6.91,0,*75
1505217758.69,28016,16.94,73176.0,6.43,6.91,6.91,0,*71
1505217759.95,28017,16.94,73176.8,6.43,6.87,6.91,0,*77
1505217761.15,28018,16.94,73172.3,6.43,6.79,6.79,0,*7F
1505217762.35,28019,16.94,73174.0,6.43,6.75,6.75,0,*7E
1505217763.58,28020,16.94,73176.3,6.43,6.57,6.79,0,*78
1505217764.83,28021,16.94,73176.0,6.43,6.65,6.65,0,*75
1505217766.08,28022,16.94,73178.0,6.43,6.57,6.53,0,*72
1505217767.3,28023,16.94,73176.0,6.41,6.53,6.57,0,*71
1505217768.55,28024,16.94,73176.0,6.43,6.65,6.69,0,*7C
1505217769.8,28025,16.94,73174.0,6.43,6.65,6.69,0,*7D
1505217771.02,28026,16.94,73172.0,6.41,6.53,6.65,0,*75
1505217772.27,28027,16.94,73174.5,6.43,6.53,6.53,0,*73
1505217773.52,28028,16.94,73172.3,6.43,6.47,6.57,0,*7D
1505217774.78,28029,16.94,73174.5,6.43,6.47,6.47,0,*7D
1505217776.03,28030,16.94,73176.5,6.43,6.39,6.39,0,*75
1505217777.27,28031,16.94,73174.0,6.43,6.33,6.39,0,*7E
1505217778.5,28032,16.94,73174.8,6.41,6.39,6.47,0,*7C
1505217779.76,28033,16.94,73168.0,6.43,6.47,6.47,0,*76
1505217781.01,28034,16.94,73172.8,6.43,6.47,6.57,0,*70
1505217782.26,28035,16.94,73176.3,6.43,6.53,6.53,0,*70
1505217783.5,28036,16.94,73172.8,6.43,6.53,6.53,0,*73
1505217784.72,28037,16.94,73172.5,6.41,6.53,6.53,0,*70
1505217785.98,28038,16.94,73174.8,6.43,6.47,6.53,0,*78
1505217787.21,28039,16.94,73172.5,6.41,6.47,6.47,0,*7E
1505217788.45,28040,16.94,73172.5,6.45,6.51,6.51,0,*74
1505217789.68,28041,16.94,73174.3,6.41,6.47,6.53,0,*74
1505217790.93,28042,16.94,73170.0,6.43,6.53,6.65,0,*75
1505217792.15,28043,16.94,73172.0,6.41,6.57,6.65,0,*72
1505217793.4,28044,16.94,73174.8,6.43,6.57,6.57,0,*76
1505217794.65,28045,16.94,73172.8,6.43,6.57,6.65,0,*76
1505217795.88,28046,16.94,73172.5,6.41,6.65,6.65,0,*76
1505217797.14,28047,16.94,73172.0,6.43,6.65,6.65,0,*75
1505217798.38,28048,16.94,73172.8,6.43,6.69,6.69,0,*7A
1505217799.63,28049,16.94,73172.3,6.43,6.65,6.69,0,*77
1505217800.85,28050,16.94,73174.3,6.41,6.53,6.57,0,*75
1505217802.1,28051,16.94,73174.5,6.43,6.47,6.53,0,*77
1505217803.35,28052,16.94,73174.8,6.43,6.47,6.53,0,*74
1505217804.61,28053,16.94,73174.3,6.43,6.47,6.53,0,*75
1505217805.85,28054,16.94,73176.0,6.43,6.57,6.57,0,*77
1505217807.1,28055,16.94,73174.8,6.43,6.69,6.69,0,*76
1505217808.35,28056,16.94,73172.3,6.43,6.65,6.65,0,*75
1505217809.57,28057,16.94,73174.5,6.45,6.61,6.61,0,*72
1505217810.77,28058,16.94,73174.3,6.45,6.69,6.79,0,*7C
1505217811.94,28059,16.94,73174.3,6.45,6.79,6.79,0,*7C
1505217813.15,28060,16.94,73178.5,6.45,6.69,6.73,0,*7D
1505217814.35,28061,16.94,73174.5,6.45,6.73,6.79,0,*7D
1505217815.52,28062,16.94,73176.3,6.45,6.83,6.83,0,*74
1505217816.75,28063,16.94,73174.8,6.45,6.91,6.91,0,*75
1505217817.98,28064,16.94,73172.3,6.47,6.73,6.79,0,*7A
1505217819.2,28065,16.94,73172.0,6.45,6.57,6.73,0,*75
1505217820.44,28066,16.94,73174.5,6.47,6.57,6.57,0,*72
1505217821.69,28067,16.94,73178.5,6.47,6.61,6.61,0,*73
1505217822.89,28068,16.94,73172.0,6.45,6.73,6.83,0,*71
1505217824.06,28069,16.94,73172.0,6.45,6.83,6.83,0,*7F
1505217825.26,28070,16.94,73172.8,6.47,6.79,6.83,0,*70
1505217826.46,28071,16.94,73176.0,6.47,6.93,6.93,0,*74
1505217827.64,28072,16.94,73174.0,6.49,7.05,7.09,0,*75
1505217828.84,28073,16.94,73174.0,6.47,6.93,7.01,0,*7C
1505217830.01,28074,16.94,73172.8,6.45,6.79,6.83,0,*76
1505217831.2,28075,16.94,73174.3,6.47,6.79,6.83,0,*75
1505217832.4,28076,16.94,73172.0,6.47,6.79,6.83,0,*76
1505217833.63,28077,16.94,73174.8,6.47,6.83,6.91,0,*71
1505217834.81,28078,16.94,73178.5,6.49,6.93,7.09,0,*71
1505217836.01,28079,16.94,73178.5,6.51,6.97,7.09,0,*7D
1505217837.19,28080,16.94,73176.8,6.49,6.93,7.05,0,*7A
1505217838.37,28081,16.94,73172.8,6.49,6.93,6.93,0,*75
1505217839.56,28082,16.94,73172.8,6.51,7.01,7.01,0,*7F
1505217840.79,28083,16.94,73174.5,6.51,7.01,7.11,0,*7F
1505217842.04,28084,16.94,73172.8,6.53,7.11,7.11,0,*7B
1505217843.24,28085,16.94,73172.5,6.49,7.09,7.19,0,*70
1505217844.5,28086,16.94,73176.8,6.51,7.11,7.19,0,*73
1505217845.75,28087,16.94,73176.3,6.53,7.19,7.11,0,*70
1505217846.98,28088,16.94,73174.0,6.53,7.09,7.19,0,*76
1505217848.23,28089,16.94,73174.3,6.57,7.15,7.23,0,*77
1505217849.47,28090,16.94,73172.5,6.57,7.23,7.29,0,*70
1505217850.72,28091,16.94,73176.5,6.53,7.23,7.27,0,*7B
1505217851.94,28092,16.94,73178.5,6.57,7.29,7.37,0,*77
1505217853.15,28093,16.94,73176.8,6.57,7.29,7.37,0,*76
1505217854.37,28094,16.94,73172.8,6.57,7.37,7.47,0,*79
1505217855.6,28095,16.94,73176.3,6.57,7.37,7.47,0,*78
1505217856.77,28096,16.94,73178.3,6.63,7.37,7.45,0,*7E
1505217857.98,28097,16.94,73176.0,6.59,7.27,7.33,0,*76
1505217859.18,28098,16.94,73172.8,6.61,7.29,7.33,0,*7C
1505217860.39,28099,16.94,73176.5,6.61,7.29,7.41,0,*78
1505217861.62,28100,16.94,73176.5,6.61,7.19,7.29,0,*74
1505217862.88,28101,16.94,73174.5,6.61,7.15,7.27,0,*77
1505217864.11,28102,16.94,73172.8,6.61,7.09,7.15,0,*78
1505217865.34,28103,16.94,73172.5,6.63,7.11,7.23,0,*77
1505217866.56,28104,16.94,73178.3,6.63,7.23,7.23,0,*71
1505217867.8,28105,16.94,73174.8,6.61,7.27,7.29,0,*7C
1505217869.04,28106,16.94,73174.8,6.61,7.27,7.29,0,*7F
1505217870.22,28107,16.94,73172.5,6.63,7.33,7.37,0,*76
1505217871.4,28108,16.94,73172.0,6.63,7.29,7.37,0,*72
1505217872.61,28109,16.94,73172.8,6.65,7.29,7.29,0,*7A
1505217873.85,28110,16.94,73172.8,6.65,7.11,7.29,0,*79
1505217875.08,28111,16.94,73174.5,6.65,7.23,7.29,0,*79
1505217876.29,28112,16.94,73172.0,6.67,7.27,7.37,0,*73
1505217877.49,28113,16.94,73172.8,6.65,7.33,7.33,0,*71
1505217878.69,28114,16.94,73174.3,6.65,7.45,7.45,0,*76
1505217879.89,28115,16.94,73174.5,6.67,7.47,7.59,0,*7A
1505217881.08,28116,16.94,73174.8,6.67,7.41,7.51,0,*77
1505217882.28,28117,16.94,73176.8,6.69,7.45,7.55,0,*78
1505217883.48,28118,16.94,73178.8,6.69,7.45,7.55,0,*77
1505217884.68,28119,16.94,73174.5,6.69,7.45,7.51,0,*72
1505217885.88,28120,16.94,73174.5,6.69,7.37,7.45,0,*78
1505217887.08,28121,16.94,73176.3,6.69,7.37,7.41,0,*7D
1505217888.29,28122,16.94,73174.3,6.69,7.29,7.29,0,*7F
1505217889.5,28123,16.94,73174.0,6.71,7.27,7.29,0,*79
1505217890.7,28124,16.94,73174.3,6.73,7.33,7.45,0,*73
1505217891.88,28125,16.94,73174.5,6.71,7.29,7.41,0,*7F
1505217893.08,28126,16.94,73172.3,6.73,7.45,7.45,0,*70
1505217894.25,28127,16.94,73176.0,6.71,7.41,7.45,0,*77
1505217895.43,28128,16.94,73174.0,6.71,7.41,7.45,0,*78
1505217896.6,28129,16.94,73174.3,6.71,7.41,7.45,0,*79
1505217897.8,28130,16.94,73172.5,6.73,7.33,7.41,0,*72
1505217899.01,28131,16.94,73178.5,6.75,7.19,7.29,0,*73
1505217900.19,28132,16.94,73178.5,6.71,6.93,6.97,0,*73
1505217901.43,28133,16.94,73174.8,6.75,6.87,6.91,0,*75
1505217902.62,28134,16.94,73176.3,6.73,6.75,6.79,0,*7F
1505217903.8,28135,16.94,73176.8,6.71,6.97,6.93,0,*74
1505217904.98,28136,16.94,73178.0,6.71,7.05,7.09,0,*7F
1505217906.17,28137,16.94,73172.8,6.71,7.09,7.29,0,*70
1505217907.36,28138,16.94,73176.0,6.73,7.33,7.33,0,*7F
1505217908.56,28139,16.94,73176.0,6.73,7.29,7.33,0,*75
1505217909.82,28140,16.94,73174.8,6.73,7.19,7.19,0,*70
1505217911.02,28141,16.94,73172.5,6.71,7.05,7.15,0,*72
1505217912.24,28142,16.94,73176.0,6.75,7.11,7.23,0,*75
1505217913.48,28143,16.94,73174.0,6.73,7.23,7.29,0,*79
1505217914.68,28144,16.94,73174.0,6.73,7.33,7.33,0,*74
1505217915.88,28145,16.94,73172.5,6.75,7.09,7.19,0,*72
1505217917.11,28146,16.94,73172.5,6.75,7.11,7.11,0,*70
1505217918.34,28147,16.94,73172.5,6.75,7.23,7.23,0,*71
1505217919.52,28148,16.94,73176.0,6.75,7.29,7.45,0,*74
1505217920.7,28149,16.94,73174.8,6.79,7.29,7.29,0,*73
1505217921.88,28150,16.94,73174.8,6.75,7.29,7.41,0,*79
1505217923.09,28151,16.94,73174.0,6.75,7.09,7.19,0,*77
1505217924.29,28152,16.94,73172.0,6.79,7.05,7.15,0,*78
1505217925.51,28153,16.94,73170.8,6.75,7.19,7.23,0,*7D
1505217926.73,28154,16.94,73172.5,6.79,7.11,7.15,0,*7B
1505217927.93,28155,16.94,73172.5,6.75,6.91,7.01,0,*7A
1505217929.13,28156,16.94,73174.0,6.75,6.91,7.01,0,*79
1505217930.31,28157,16.94,73172.5,6.79,6.97,6.97,0,*7C
1505217931.49,28158,16.94,73178.0,6.75,6.97,6.97,0,*7F
1505217932.7,28159,16.94,73174.8,6.75,7.09,7.11,0,*77
1505217933.91,28160,16.94,73176.5,6.75,7.23,7.29,0,*7E
1505217935.11,28161,16.94,73174.5,6.79,7.27,7.37,0,*78
1505217936.33,28162,16.94,73176.0,6.79,7.11,7.23,0,*7B
1505217937.55,28163,16.94,73174.3,6.79,7.11,7.23,0,*7A
1505217938.77,28164,16.94,73178.0,6.79,7.15,7.15,0,*7C
1505217940.0,28165,16.94,73174.3,6.75,7.11,7.11,0,*71
1505217941.22,28166,16.94,73172.8,6.79,7.23,7.23,0,*7E
1505217942.42,28167,16.94,73170.8,6.79,7.27,7.33,0,*7A
1505217943.58,28168,16.94,73174.0,6.79,7.33,7.33,0,*70
1505217944.77,28169,16.94,73172.5,6.75,7.29,7.29,0,*7D
1505217946.0,28170,16.94,73174.0,6.79,7.27,7.27,0,*79
1505217947.22,28171,16.94,73174.5,6.79,7.27,7.27,0,*78
1505217948.41,28172,16.94,73172.3,6.79,7.37,7.47,0,*7C
1505217949.58,28173,16.94,73172.5,6.79,7.45,7.45,0,*7A
1505217950.75,28174,16.94,73170.0,6.79,7.37,7.45,0,*78
1505217951.95,28175,16.94,73174.0,6.81,7.41,7.51,0,*7A
1505217953.15,28176,16.94,73174.0,6.81,7.37,7.41,0,*79
1505217954.35,28177,16.94,73174.3,6.81,7.29,7.37,0,*76
1505217955.58,28178,16.94,73172.5,6.81,7.27,7.37,0,*77
1505217956.77,28179,16.94,73170.0,6.85,7.29,7.29,0,*73
1505217958.0,28180,16.94,73172.3,6.87,7.19,7.29,0,*74
1505217959.23,28181,16.94,73172.0,6.83,7.15,7.19,0,*7E
1505217960.48,28182,16.94,73170.5,6.81,7.15,7.19,0,*7F
1505217961.7,28183,16.94,73174.0,6.85,7.11,7.19,0,*7E
1505217962.9,28184,16.94,73174.0,6.81,6.97,7.05,0,*7F
1505217964.1,28185,16.94,73172.5,6.81,6.97,7.05,0,*7E
1505217965.27,28186,16.94,73172.3,6.83,7.05,7.09,0,*79
1505217966.47,28187,16.94,73174.0,6.81,7.09,7.09,0,*76
1505217967.67,28188,16.94,73172.5,6.81,6.93,7.05,0,*77
1505217968.84,28189,16.94,73174.3,6.83,6.79,6.79,0,*7A
1505217970.09,28190,16.94,73172.5,6.81,6.73,6.73,0,*70
1505217971.31,28191,16.94,73172.3,6.81,6.73,6.79,0,*7B
1505217972.54,28192,16.94,73174.8,6.83,6.73,6.87,0,*7B
1505217973.74,28193,16.94,73176.0,6.81,6.79,6.79,0,*73
1505217974.91,28194,16.94,73170.3,6.83,6.79,6.83,0,*73
1505217976.1,28195,16.94,73174.8,6.81,6.79,6.79,0,*75
1505217977.33,28196,16.94,73172.3,6.81,6.73,6.79,0,*7C
1505217978.55,28197,16.94,73174.5,6.79,6.51,6.57,0,*76
1505217979.75,28198,16.94,73172.8,6.79,6.33,6.43,0,*78
1505217980.94,28199,16.94,73174.3,6.75,6.29,6.33,0,*79
1505217982.16,28200,16.94,73172.8,6.75,6.33,6.43,0,*76
1505217983.39,28201,16.94,73174.5,6.75,6.39,6.43,0,*7D
1505217984.63,28202,16.94,73172.3,6.75,6.43,6.51,0,*70
1505217985.88,28203,16.94,73170.5,6.73,6.51,6.53,0,*76
1505217987.11,28204,16.94,73168.8,6.71,6.51,6.57,0,*77
1505217988.34,28205,16.94,73168.8,6.71,6.51,6.57,0,*76
1505217989.58,28206,16.94,73170.3,6.73,6.61,6.61,0,*71
1505217990.84,28207,16.94,73168.5,6.73,6.65,6.61,0,*74
1505217992.06,28208,16.94,73170.8,6.71,6.61,6.61,0,*7D
1505217993.28,28209,16.94,73170.5,6.71,6.57,6.61,0,*79
1505217994.53,28210,16.94,73168.8,6.73,6.61,6.61,0,*76
1505217995.76,28211,16.94,73170.3,6.71,6.61,6.61,0,*75
1505217996.93,28212,16.94,73174.8,6.71,6.75,6.75,0,*76
1505217998.11,28213,16.94,73170.3,6.71,6.83,6.75,0,*7E
1505217999.31,28214,16.94,73170.0,6.71,6.73,6.83,0,*7F
1505218000.54,28215,16.94,73170.3,6.71,6.61,6.69,0,*79
1505218001.76,28216,16.94,73172.5,6.71,6.61,6.69,0,*7A
1505218002.99,28217,16.94,73174.8,6.71,6.51,6.57,0,*75
1505218004.21,28218,16.94,73170.3,6.71,6.57,6.57,0,*7C
1505218005.45,28219,16.94,73170.5,6.71,6.51,6.51,0,*7D
1505218006.7,28220,16.94,73172.0,6.69,6.39,6.51,0,*70
1505218007.95,28221,16.94,73168.3,6.69,6.61,6.61,0,*7F
1505218009.2,28222,16.94,73170.8,6.69,6.51,6.57,0,*7A
1505218010.46,28223,16.94,73168.0,6.69,6.47,6.47,0,*7D
1505218011.7,28224,16.94,73170.5,6.67,6.47,6.47,0,*74
1505218012.97,28225,16.94,73168.5,6.69,6.51,6.51,0,*7B
1505218014.19,28226,16.94,73170.5,6.67,6.61,6.57,0,*73
1505218015.42,28227,16.94,73168.5,6.67,6.57,6.65,0,*76
1505218016.65,28228,16.94,73172.5,6.67,6.65,6.73,0,*7F
1505218017.88,28229,16.94,73170.5,6.67,6.69,6.73,0,*72
1505218019.11,28230,16.94,73168.8,6.67,6.65,6.69,0,*7D
1505218020.34,28231,16.94,73174.0,6.67,6.65,6.69,0,*7C
1505218021.56,28232,16.94,73170.5,6.67,6.53,6.65,0,*76
1505218022.78,28233,16.94,73170.5,6.67,6.53,6.57,0,*76
1505218024.01,28234,16.94,73174.3,6.67,6.53,6.53,0,*75
1505218025.23,28235,16.94,73170.3,6.67,6.57,6.57,0,*74
1505218026.46,28236,16.94,73174.5,6.67,6.57,6.57,0,*77
1505218027.7,28237,16.94,73174.5,6.67,6.43,6.43,0,*76
1505218028.91,28238,16.94,73170.5,6.65,6.21,6.33,0,*78
1505218030.11,28239,16.94,73168.8,6.65,6.21,6.29,0,*72
1505218031.34,28240,16.94,73174.5,6.65,6.17,6.21,0,*71
1505218032.53,28241,16.94,73172.0,6.63,6.21,6.33,0,*70
1505218033.74,28242,16.94,73172.0,6.65,6.21,6.21,0,*76
1505218034.93,28243,16.94,73170.0,6.63,6.21,6.33,0,*72
1505218036.16,28244,16.94,73172.5,6.63,6.43,6.43,0,*76
1505218037.38,28245,16.94,73176.5,6.63,6.53,6.53,0,*77
1505218038.62,28246,16.94,73172.5,6.63,6.65,6.65,0,*74
1505218039.84,28247,16.94,73174.5,6.63,6.69,6.69,0,*75
1505218041.06,28248,16.94,73174.8,6.63,6.69,6.69,0,*7A
1505218042.28,28249,16.94,73174.8,6.63,6.69,6.69,0,*7B
1505218043.47,28250,16.94,73174.3,6.65,6.79,6.79,0,*75
1505218044.73,28251,16.94,73172.5,6.65,6.91,6.91,0,*74
1505218045.98,28252,16.94,73172.8,6.65,6.91,6.91,0,*77
1505218047.19,28253,16.94,73172.3,6.63,6.79,6.87,0,*71
1505218048.39,28254,16.94,73172.5,6.65,6.75,6.75,0,*71
1505218049.63,28255,16.94,73174.8,6.65,6.61,6.69,0,*78
1505218050.85,28256,16.94,73178.0,6.63,6.69,6.69,0,*75
1505218052.05,28257,16.94,73174.8,6.65,6.79,6.79,0,*72
1505218053.23,28258,16.94,73174.5,6.67,6.93,7.01,0,*75
1505218054.42,28259,16.94,73172.5,6.65,7.01,7.09,0,*74
1505218055.63,28260,16.94,73180.3,6.67,7.05,7.11,0,*71
1505218056.84,28261,16.94,73178.5,6.67,7.05,7.11,0,*70
1505218058.01,28262,16.94,73174.0,6.67,7.01,7.05,0,*72
1505218059.24,28263,16.94,73176.8,6.67,6.91,6.91,0,*77
1505218060.42,28264,16.94,73174.0,6.67,6.83,6.93,0,*71
1505218061.6,28265,16.94,73174.0,6.67,6.93,7.05,0,*7F
1505218062.8,28266,16.94,73170.5,6.67,6.91,7.01,0,*7A
1505218063.98,28267,16.94,73172.5,6.67,6.97,7.05,0,*79
1505218065.19,28268,16.94,73174.3,6.67,6.91,7.01,0,*74
1505218066.39,28269,16.94,73178.8,6.69,6.97,7.05,0,*79
1505218067.56,28270,16.94,73172.3,6.67,7.01,7.05,0,*71
1505218068.79,28271,16.94,73172.5,6.69,7.09,7.15,0,*77
1505218070.04,28272,16.94,73174.3,6.69,7.15,7.19,0,*75
1505218071.29,28273,16.94,73172.8,6.69,7.19,7.27,0,*75
1505218072.52,28274,16.94,73176.0,6.71,7.15,7.27,0,*77
1505218073.75,28275,16.94,73174.3,6.71,7.15,7.15,0,*77
1505218074.97,28276,16.94,73174.5,6.73,7.09,7.15,0,*7B
1505218076.18,28277,16.94,73172.5,6.71,7.05,7.15,0,*74
1505218077.38,28278,16.94,73174.0,6.71,7.09,7.19,0,*7B
1505218078.59,28279,16.94,73174.8,6.73,6.97,7.09,0,*7F
1505218079.79,28280,16.94,73174.8,6.73,6.97,7.09,0,*79
1505218081.05,28281,16.94,73176.5,6.73,6.87,6.91,0,*79
1505218082.28,28282,16.94,73172.5,6.73,6.91,6.97,0,*7B
1505218083.48,28283,16.94,73174.3,6.73,6.97,7.09,0,*7A
1505218084.7,28284,16.94,73172.8,6.73,7.01,7.11,0,*7A
1505218085.9,28285,16.94,73170.5,6.71,7.01,7.11,0,*79
1505218087.12,28286,16.94,73178.8,6.79,7.11,7.15,0,*77
1505218088.35,28287,16.94,73176.3,6.73,7.09,7.19,0,*79
1505218089.58,28288,16.94,73176.3,6.73,7.09,7.23,0,*7F
1505218090.75,28289,16.94,73176.0,6.75,7.01,7.01,0,*70
1505218091.91,28290,16.94,73176.8,6.79,7.01,7.05,0,*70
1505218093.11,28291,16.94,73176.0,6.75,7.01,7.11,0,*78
1505218094.31,28292,16.94,73178.3,6.75,7.09,7.19,0,*7B
1505218095.54,28293,16.94,73178.5,6.75,7.11,7.19,0,*73
1505218096.77,28294,16.94,73176.0,6.75,7.11,7.19,0,*74
1505218097.99,28295,16.94,73178.5,6.75,7.19,7.19,0,*7D
1505218099.22,28296,16.94,73172.3,6.79,7.23,7.27,0,*76
1505218100.44,28297,16.94,73176.5,6.79,7.11,7.23,0,*72
1505218101.66,28298,16.94,73176.3,6.79,7.23,7.27,0,*78
1505218102.86,28299,16.94,73176.5,6.79,7.27,7.33,0,*78
1505218104.08,28300,16.94,73172.8,6.81,7.09,7.19,0,*7A
1505218105.28,28301,16.94,73176.3,6.81,6.97,7.05,0,*70
1505218106.44,28302,16.94,73172.3,6.79,7.01,7.05,0,*7A
1505218107.64,28303,16.94,73178.3,6.81,7.05,7.09,0,*74
1505218108.87,28304,16.94,73174.8,6.81,7.09,7.15,0,*72
1505218110.07,28305,16.94,73178.5,6.75,6.87,6.97,0,*74
1505218111.27,28306,16.94,73174.3,6.81,6.93,6.93,0,*7D
1505218112.45,28307,16.94,73176.5,6.75,6.75,6.79,0,*7B
1505218113.65,28308,16.94,73174.0,6.75,6.79,6.91,0,*7E
1505218114.88,28309,16.94,73176.0,6.79,6.91,6.91,0,*75
1505218116.1,28310,16.94,73174.5,6.79,6.91,6.91,0,*7D
1505218117.3,28311,16.94,73174.3,6.79,6.91,6.93,0,*7E
1505218118.5,28312,16.94,73176.5,6.79,6.83,6.91,0,*7C
1505218119.7,28313,16.94,73178.0,6.79,6.83,6.91,0,*7D
1505218120.93,28314,16.94,73174.3,6.75,6.91,6.91,0,*75
1505218122.13,28315,16.94,73176.5,6.81,7.05,7.09,0,*73
1505218123.32,28316,16.94,73176.8,6.81,7.05,7.05,0,*7C
1505218124.51,28317,16.94,73172.5,6.79,6.91,7.05,0,*76
1505218125.71,28318,16.94,73178.3,6.81,6.79,6.83,0,*77
1505218126.93,28319,16.94,73178.3,6.81,6.79,6.87,0,*72
1505218128.1,28320,16.94,73176.3,6.79,6.83,6.83,0,*7E
1505218129.35,28321,16.94,73176.0,6.81,6.87,6.87,0,*78
1505218130.55,28322,16.94,73176.3,6.81,6.97,7.09,0,*7D
1505218131.77,28323,16.94,73174.3,6.79,7.23,7.23,0,*7D